EW3803 Weather Reports


time (UTC)temp
C
wind
direction
speed
KPH
gust
KPH
rain 1hr
cm
rain 24hr
cm
rain mn
cm
humidity
%
barometer
mb
20260906103015 23 242 12.9 17.7 0.00 0.00 0.00 76 1021.0
20260906101523 24 241 9.7 17.7 0.00 0.00 0.00 74 1020.9
20260906100033 23 208 8.0 12.9 0.00 0.00 0.00 77 1020.8
20260906094531 23 227 6.4 12.9 0.00 0.00 0.00 83 1020.6
20260906093046 22 202 4.8 11.3 0.00 0.00 0.00 85 1020.6
20260906091520 22 248 6.4 9.7 0.00 0.00 0.00 89 1020.4
20260906090043 22 253 4.8 12.9 0.00 0.00 0.00 91 1020.3
20260906084534 21 244 4.8 6.4 0.00 0.00 0.00 94 1020.1
20260906083039 21 351 1.6 3.2 0.00 0.00 0.00 95 1020.1
20260906081517 21 360 3.2 3.2 0.00 0.00 0.00 96 1020.0
20260906080002 20 360 3.2 4.8 0.00 0.00 0.00 96 1019.9
20260906074509 20 360 1.6 3.2 0.00 0.00 0.00 95 1019.9
20260906073005 19 98 0.0 3.2 0.00 0.00 0.00 96 1019.9
20260906071505 18 99 0.0 4.8 0.00 0.00 0.00 95 1019.8
20260906070007 19 82 0.0 6.4 0.00 0.00 0.00 95 1019.7
20260906064512 19 106 1.6 6.4 0.00 0.00 0.00 95 1019.5
20260906063008 19 109 3.2 6.4 0.00 0.00 0.00 95 1019.5
20260906061509 19 129 3.2 6.4 0.00 0.00 0.00 95 1019.4
20260906060009 19 105 4.8 6.4 0.00 0.00 0.00 95 1019.3
20260906054508 19 86 0.0 9.7 0.00 0.00 0.00 95 1019.3
20260906053008 19 97 8.0 9.7 0.00 0.00 0.00 95 1019.2
20260906051511 19 111 3.2 4.8 0.00 0.00 0.00 95 1019.0
20260906050010 19 111 3.2 8.0 0.00 0.00 0.00 94 1019.1
20260906044512 19 94 4.8 6.4 0.00 0.00 0.00 94 1019.0
20260906043012 19 43 3.2 6.4 0.00 0.00 0.00 94 1019.1
20260906041512 19 47 4.8 6.4 0.00 0.00 0.00 94 1019.1
20260906040013 20 147 1.6 3.2 0.00 0.00 0.00 94 1019.2
20260906034514 20 147 0.0 4.8 0.00 0.00 0.00 94 1019.1
20260906033014 20 147 3.2 6.4 0.00 0.00 0.00 94 1019.2
20260906031507 20 138 1.6 4.8 0.00 0.00 0.00 94 1019.2
20260906030015 19 125 1.6 3.2 0.00 0.00 0.00 93 1019.3
20260906024514 19 125 1.6 6.4 0.00 0.00 0.00 93 1019.3
20260906023015 20 126 3.2 6.4 0.00 0.00 0.00 93 1019.3
20260906021516 20 92 3.2 6.4 0.00 0.00 0.00 93 1019.3
20260906020014 20 107 4.8 6.4 0.00 0.00 0.00 92 1019.3
20260906014535 20 222 1.6 3.2 0.00 0.00 0.00 93 1019.5
20260906013022 20 264 1.6 3.2 0.00 0.00 0.00 92 1019.5
20260906011518 20 264 0.0 1.6 0.00 0.00 0.00 92 1019.8
20260906010036 20 264 1.6 3.2 0.00 0.00 0.00 92 1019.9
20260906004516 20 264 1.6 3.2 0.00 0.00 0.00 92 1020.0
20260906003018 20 264 0.0 0.0 0.00 0.00 0.00 91 1020.0
20260906001520 20 264 0.0 0.0 0.00 0.00 0.00 91 1020.0
20260906000018 20 264 0.0 0.0 0.00 0.00 0.00 91 1020.0
20260905234513 20 264 0.0 0.0 0.00 0.00 0.00 90 1020.0
20260905233018 21 264 1.6 3.2 0.00 0.00 0.00 89 1020.0
20260905231536 21 264 3.2 4.8 0.00 0.00 0.00 88 1020.0
20260905230017 21 264 1.6 4.8 0.00 0.00 0.00 87 1019.8
20260905224524 21 264 1.6 4.8 0.00 0.00 0.00 86 1019.8
20260905223029 21 264 3.2 4.8 0.00 0.00 0.00 85 1019.8
20260905221526 21 268 3.2 6.4 0.00 0.00 0.00 84 1019.7
20260905220027 21 264 3.2 6.4 0.00 0.00 0.00 82 1019.8
20260905214523 22 284 4.8 4.8 0.00 0.00 0.00 81 1019.9
20260905213019 22 290 3.2 3.2 0.00 0.00 0.00 81 1019.8
20260905211536 22 290 3.2 4.8 0.00 0.00 0.00 80 1019.7
20260905210027 22 290 3.2 4.8 0.00 0.00 0.00 80 1019.6
20260905204528 22 290 0.0 3.2 0.00 0.00 0.00 81 1019.4
20260905203024 22 290 3.2 4.8 0.00 0.00 0.00 81 1019.2
20260905201526 22 290 3.2 4.8 0.00 0.00 0.00 82 1019.1
20260905200024 22 250 1.6 6.4 0.00 0.00 0.00 83 1019.0
20260905194528 22 217 0.0 3.2 0.00 0.00 0.00 84 1018.8
20260905193015 22 217 1.6 4.8 0.00 0.00 0.00 84 1018.4
20260905191525 22 217 1.6 3.2 0.00 0.00 0.00 84 1018.5
20260905190023 23 217 0.0 4.8 0.00 0.00 0.00 84 1018.4
20260905184531 23 214 1.6 4.8 0.00 0.00 0.00 82 1018.4
20260905183036 24 217 3.2 6.4 0.00 0.00 0.00 81 1018.5
20260905181511 24 185 3.2 8.0 0.00 0.00 0.00 80 1018.5
20260905180018 25 200 4.8 8.0 0.00 0.00 0.00 78 1018.4
20260905174527 26 199 4.8 11.3 0.00 0.00 0.00 75 1018.2
20260905173026 26 194 6.4 16.1 0.00 0.00 0.00 72 1018.2
20260905171530 26 175 6.4 16.1 0.00 0.00 0.00 70 1018.2
20260905170016 27 184 9.7 14.5 0.00 0.00 0.00 66 1017.9
20260905164523 27 182 4.8 12.9 0.00 0.00 0.00 66 1017.8
20260905163028 27 205 6.4 16.1 0.00 0.00 0.00 66 1017.8
20260905161531 27 169 8.0 16.1 0.00 0.00 0.00 65 1017.7
20260905160014 27 184 9.7 16.1 0.00 0.00 0.00 65 1017.7
20260905154519 27 156 4.8 14.5 0.00 0.00 0.00 71 1017.8
20260905153028 26 132 9.7 19.3 0.00 0.00 0.00 75 1017.8
20260905151536 26 162 11.3 17.7 0.00 0.00 0.00 71 1017.8
20260905150028 27 107 8.0 14.5 0.00 0.00 0.00 66 1017.9
20260905144527 27 123 8.0 16.1 0.00 0.00 0.00 69 1017.9
20260905143026 27 124 4.8 16.1 0.00 0.00 0.00 68 1018.0
20260905141532 29 150 12.9 17.7 0.00 0.00 0.00 57 1017.9
20260905140029 28 188 3.2 11.3 0.00 0.00 0.00 57 1017.8
20260905134531 30 181 6.4 12.9 0.00 0.03 0.00 54 1017.8
20260905133020 29 239 6.4 9.7 0.00 0.03 0.00 56 1017.5
20260905131528 28 201 4.8 11.3 0.00 0.03 0.00 57 1017.7
20260905130038 28 192 4.8 9.7 0.00 0.03 0.00 58 1017.7
20260905124531 28 199 6.4 9.7 0.00 0.03 0.00 62 1017.6
20260905123017 27 192 4.8 9.7 0.00 0.03 0.00 62 1017.7
20260905121524 27 231 4.8 9.7 0.00 0.03 0.00 64 1017.7
20260905120031 27 239 8.0 11.3 0.00 0.03 0.00 64 1017.8
20260905114510 27 215 4.8 11.3 0.00 0.03 0.00 65 1017.8
20260905113017 27 200 4.8 11.3 0.00 0.03 0.00 66 1017.9
20260905111532 26 188 3.2 9.7 0.00 0.03 0.00 68 1018.0
20260905110030 26 254 4.8 11.3 0.00 0.03 0.00 68 1018.1
20260905104531 27 225 4.8 8.0 0.00 0.03 0.00 65 1018.2